Date String (YYYY-MM-DD hh:mm:ss) UTC,Instrument flags,absolute air pressure of the measurement (hPa),sample flow rate (lpm),inlet stack bypass flow (lpm),air temperature of the measurement (°C),ambient temperature measured by the external sensor (°C),aerosol sample conditioner tube jacket temperature (°C),OPC LED temperature (°C),internal box temperature (°C),relative humidity of the measurement (%),span deviation,mass concentration of particles derived from Lorenz-Mie calculation of OPC scattering (μg/m³),mass concentration of particles derived from Lorenz-Mie calculation of OPC scattering (μg/m³),mass concentration of particles derived from Lorenz-Mie calculation of OPC scattering (μg/m³)
DateTimeUTC,F1_M11,P_M11,Q1_M11,Q2_M11,T1_M11,T2_M11,T3_M11,T4_M11,T5_M11,U1_M11,ZSPAN_M11,X2_M11,X0_M11,X1_M11
2023-06-19 05:00:00,SystemResetWarning,0824.7,5.00,000.00,029.5,027.6,000.0,038.0,031.0,24.0,0000.0,0004.46,0008.87,0003.97
2023-06-19 05:01:00,SystemResetWarning,0824.7,5.00,000.00,029.5,027.7,000.0,038.0,031.0,24.0,0002.2,0004.46,0008.96,0003.97
2023-06-19 05:02:00,SystemResetWarning,0824.7,5.00,000.00,029.5,027.8,000.0,038.0,031.1,23.8,0003.7,0004.48,0009.25,0003.97
2023-06-19 05:03:00,SystemResetWarning,0824.6,5.00,000.00,029.5,027.9,000.0,038.0,031.1,23.7,0003.1,0004.46,0009.15,0003.98
2023-06-19 05:04:00,SystemResetWarning,0824.6,5.00,000.00,029.6,028.0,000.0,038.1,031.1,23.7,0000.0,0004.45,0009.18,0003.98
2023-06-19 05:05:00,SystemResetWarning,0824.6,5.00,000.00,029.6,028.1,000.0,038.1,031.2,23.6,0000.0,0004.47,0009.11,0003.98
2023-06-19 05:06:00,SystemResetWarning,0824.6,5.00,000.00,029.6,028.2,000.0,038.1,031.2,23.5,0000.0,0004.49,0008.40,0003.98
2023-06-19 05:07:00,SystemResetWarning,0824.6,5.00,000.00,029.6,028.2,000.0,038.1,031.2,23.4,0000.0,0004.47,0008.24,0003.98
2023-06-19 05:08:00,SystemResetWarning,0824.7,5.00,000.00,029.7,028.3,000.0,038.1,031.3,23.4,0000.0,0004.48,0008.08,0003.98
2023-06-19 05:09:00,SystemResetWarning,0824.7,5.00,000.00,029.7,028.3,000.0,038.2,031.3,23.4,0000.0,0004.46,0008.02,0003.96
2023-06-19 05:10:00,SystemResetWarning,0824.7,5.00,000.00,029.7,028.3,000.0,038.2,031.3,23.3,0000.0,0004.47,0008.14,0003.97
2023-06-19 05:11:00,SystemResetWarning,0824.7,4.99,000.00,029.8,028.2,000.0,038.2,031.3,23.3,0000.0,0004.48,0008.43,0003.98
2023-06-19 05:12:00,SystemResetWarning,0824.6,5.00,000.00,029.8,026.0,000.0,038.1,031.3,23.2,0000.0,0004.51,0008.71,0003.98
2023-06-19 05:13:00,SystemResetWarning,0824.6,5.00,000.00,029.7,024.7,000.0,038.1,031.3,23.2,0000.0,0004.51,0008.38,0003.98
2023-06-19 05:14:00,SystemResetWarning,0824.6,5.02,000.00,029.7,024.8,000.0,038.0,031.0,23.4,0000.0,0004.51,0008.42,0003.98
2023-06-19 05:15:00,SystemResetWarning,0824.6,5.00,000.00,029.5,025.1,000.0,038.1,030.8,23.4,0000.0,0004.50,0008.89,0003.98
2023-06-19 05:16:00,SystemResetWarning,0824.6,5.00,000.00,029.5,025.6,000.0,038.1,030.7,23.3,0000.0,0004.52,0009.23,0003.97
2023-06-19 05:17:00,SystemResetWarning,0824.6,5.01,000.00,029.5,026.0,000.0,038.0,030.7,23.1,0000.0,0004.48,0009.39,0003.98
2023-06-19 05:18:00,SystemResetWarning,0824.6,5.00,000.00,029.4,026.4,000.0,038.0,030.8,23.0,0000.0,0004.43,0009.41,0003.96
2023-06-19 05:19:00,SystemResetWarning,0824.6,4.98,000.00,029.4,026.8,000.0,038.0,030.8,22.9,0000.0,0004.41,0009.38,0003.96
2023-06-19 05:20:00,SystemResetWarning,0824.6,5.01,000.00,029.4,027.0,000.0,038.0,030.9,22.8,0000.0,0004.43,0009.44,0003.96
2023-06-19 05:21:00,SystemResetWarning,0824.6,5.01,000.00,029.5,027.2,000.0,038.0,030.9,22.7,0000.0,0004.43,0009.50,0003.94
2023-06-19 05:22:00,SystemResetWarning,0824.6,4.98,000.00,029.5,027.4,000.0,038.0,030.9,22.5,0000.0,0004.41,0009.18,0003.93
2023-06-19 05:23:00,SystemResetWarning,0824.7,4.99,000.00,029.5,027.6,000.0,038.0,031.0,22.4,0000.0,0004.40,0008.94,0003.92
2023-06-19 05:24:00,SystemResetWarning,0824.6,5.02,000.00,029.5,027.7,000.0,038.0,031.0,22.5,0000.0,0004.44,0009.12,0003.91
2023-06-19 05:25:00,SystemResetWarning,0824.6,5.00,000.00,029.5,027.8,000.0,038.0,031.1,22.3,0000.0,0004.46,0009.08,0003.92
2023-06-19 05:26:00,SystemResetWarning,0824.6,5.00,000.00,029.5,027.9,000.0,038.1,031.1,22.2,0000.0,0004.43,0008.48,0003.91
2023-06-19 05:27:00,SystemResetWarning,0824.6,5.00,000.00,029.6,028.0,000.0,038.1,031.1,22.3,0000.0,0004.43,0008.10,0003.90
2023-06-19 05:28:00,SystemResetWarning,0824.5,5.00,000.00,029.6,028.1,000.0,038.1,031.2,22.4,0000.0,0004.44,0008.00,0003.89
2023-06-19 05:29:00,SystemResetWarning,0824.5,5.00,000.00,029.6,028.1,000.0,038.1,031.2,22.2,0000.0,0004.47,0008.43,0003.89
2023-06-19 05:30:00,SystemResetWarning,0824.5,5.00,000.00,029.6,028.2,000.0,038.1,031.2,21.8,0000.0,0004.48,0008.41,0003.90
2023-06-19 05:31:00,SystemResetWarning,0824.5,5.00,000.00,029.7,028.2,000.0,038.1,031.2,21.4,0000.0,0004.50,0008.92,0003.89
2023-06-19 05:32:00,SystemResetWarning,0824.5,5.00,000.00,029.7,028.2,000.0,038.1,031.3,21.1,0000.0,0004.48,0009.31,0003.88
2023-06-19 05:33:00,SystemResetWarning,0824.5,5.00,000.00,029.7,028.3,000.0,038.2,031.3,20.3,0000.0,0004.46,0009.26,0003.87
2023-06-19 05:34:00,SystemResetWarning,0824.5,5.00,000.00,029.7,028.3,000.0,038.2,031.3,20.3,0000.0,0004.43,0009.30,0003.86
2023-06-19 05:35:00,SystemResetWarning,0824.5,5.00,000.00,029.8,028.3,000.0,038.2,031.3,20.4,0000.0,0004.35,0009.19,0003.84
2023-06-19 05:36:00,SystemResetWarning,0824.5,5.00,000.00,029.8,028.4,000.0,038.2,031.4,20.1,0000.0,0004.29,0009.87,0003.80
2023-06-19 05:37:00,SystemResetWarning,0824.5,5.00,000.00,029.8,028.4,000.0,038.3,031.4,19.5,0000.0,0004.29,0010.16,0003.78
2023-06-19 05:38:00,SystemResetWarning,0824.6,5.01,000.00,029.8,028.4,000.0,038.3,031.4,19.2,0000.0,0004.26,0010.17,0003.75
2023-06-19 05:39:00,SystemResetWarning,0824.6,5.00,000.00,029.9,028.4,000.0,038.3,031.4,18.6,0000.0,0004.22,0010.21,0003.73
2023-06-19 05:40:00,SystemResetWarning,0824.7,4.99,000.00,029.9,026.8,000.0,038.3,031.4,19.0,0000.0,0004.18,0009.99,0003.71
2023-06-19 05:41:00,SystemResetWarning,0824.7,5.00,000.00,029.8,024.9,000.0,038.2,031.2,20.2,0000.0,0004.16,0010.27,0003.68
2023-06-19 05:42:00,SystemResetWarning,0824.7,5.01,000.00,029.8,024.8,000.0,038.2,031.1,23.0,0000.0,0004.12,0010.02,0003.66
2023-06-19 05:43:00,SystemResetWarning,0824.7,5.01,000.00,029.6,025.1,000.0,038.2,030.9,21.5,0000.0,0004.09,0009.25,0003.64
2023-06-19 05:44:00,SystemResetWarning,0824.7,4.99,000.00,029.6,025.6,000.0,038.2,030.9,20.8,0000.0,0004.13,0009.79,0003.65
2023-06-19 05:45:00,SystemResetWarning,0824.7,5.00,000.00,029.6,026.0,000.0,038.1,030.9,23.4,0000.0,0004.12,0009.88,0003.65
2023-06-19 05:46:00,SystemResetWarning,0824.7,5.00,000.00,029.5,026.4,000.0,038.1,030.9,23.8,0000.0,0004.17,0009.85,0003.67
2023-06-19 05:47:00,SystemResetWarning,0824.7,5.00,000.00,029.5,026.8,000.0,038.1,030.9,23.1,0000.0,0004.21,0009.51,0003.70
2023-06-19 05:48:00,SystemResetWarning,0824.7,5.00,000.00,029.5,027.1,000.0,038.1,031.0,22.9,0000.0,0004.25,0009.79,0003.74
2023-06-19 05:49:00,SystemResetWarning,0824.6,4.98,000.00,029.6,027.3,000.0,038.1,031.1,22.7,0000.0,0004.30,0009.99,0003.76
2023-06-19 05:50:00,SystemResetWarning,0824.5,5.00,000.00,029.6,027.5,000.0,038.1,031.1,21.4,0000.0,0004.34,0010.26,0003.79
2023-06-19 05:51:00,SystemResetWarning,0824.5,5.02,000.00,029.6,027.7,000.0,038.1,031.1,20.8,0000.0,0004.35,0010.04,0003.81
2023-06-19 05:52:00,SystemResetWarning,0824.6,4.99,000.00,029.6,027.8,000.0,038.2,031.2,20.5,0000.0,0004.38,0009.80,0003.82
2023-06-19 05:53:00,SystemResetWarning,0824.6,4.99,000.00,029.6,028.0,000.0,038.2,031.2,20.2,0000.0,0004.37,0009.91,0003.83
2023-06-19 05:54:00,SystemResetWarning,0824.7,5.03,000.00,029.7,028.1,000.0,038.2,031.2,20.2,0000.0,0004.34,0010.18,0003.83
2023-06-19 05:55:00,SystemResetWarning,0824.7,4.99,000.00,029.7,028.1,000.0,038.2,031.2,20.2,0000.0,0004.30,0009.85,0003.81
2023-06-19 05:56:00,SystemResetWarning,0824.7,5.00,000.00,029.7,028.2,000.0,038.2,031.3,19.9,0000.0,0004.32,0009.73,0003.80
2023-06-19 05:57:00,SystemResetWarning,0824.6,5.02,000.00,029.7,028.3,000.0,038.2,031.3,19.3,0000.0,0004.27,0009.66,0003.78
2023-06-19 05:58:00,SystemResetWarning,0824.6,5.00,000.00,029.8,028.3,000.0,038.2,031.3,19.5,0000.0,0004.22,0010.07,0003.74
2023-06-19 05:59:00,SystemResetWarning,0824.5,5.00,000.00,029.8,028.4,000.0,038.3,031.3,19.3,0000.0,0004.17,0009.28,0003.69
